Time,TemperatureF,DewpointF,PressureIn,WindDirection,WindDirectionDegrees,WindSpeedMPH,WindSpeedGustMPH,Humidity,HourlyPrecipIn,Conditions,Clouds,dailyrainin,SolarRadiationWatts/m^2,SoftwareType,DateUTC
2013-05-26 00:01:00,39.8,34.8,29.76,NW,326,9.0,11.0,82,0.00,,,0.00,0.0,WUHU216DAVISWMX,2013-05-26 04:01:00,
2013-05-26 00:06:00,39.7,34.4,29.76,WNW,290,8.0,11.0,81,0.00,,,0.00,0.0,WUHU216DAVISWMX,2013-05-26 04:06:00,
2013-05-26 00:11:00,39.7,34.4,29.75,NW,318,5.0,10.0,81,0.00,,,0.00,0.0,WUHU216DAVISWMX,2013-05-26 04:11:00,
2013-05-26 00:16:00,39.6,34.3,29.75,NW,313,7.0,10.0,81,0.00,,,0.00,0.0,WUHU216DAVISWMX,2013-05-26 04:16:00,
2013-05-26 00:21:00,39.6,34.0,29.75,WNW,294,12.0,12.0,80,0.00,,,0.00,0.0,WUHU216DAVISWMX,2013-05-26 04:21:00,
2013-05-26 00:26:00,39.6,34.0,29.75,NW,325,6.0,12.0,80,0.00,,,0.00,0.0,WUHU216DAVISWMX,2013-05-26 04:26:00,
2013-05-26 00:31:00,39.5,34.2,29.75,NW,318,5.0,11.0,81,0.00,,,0.00,0.0,WUHU216DAVISWMX,2013-05-26 04:31:00,
2013-05-26 00:36:00,39.4,34.1,29.75,WNW,297,7.0,12.0,81,0.00,,,0.00,0.0,WUHU216DAVISWMX,2013-05-26 04:36:00,
2013-05-26 00:41:00,39.4,34.1,29.75,WNW,298,4.0,12.0,81,0.00,,,0.00,0.0,WUHU216DAVISWMX,2013-05-26 04:41:00,
2013-05-26 00:46:00,39.3,34.0,29.75,NW,304,5.0,11.0,81,0.00,,,0.00,0.0,WUHU216DAVISWMX,2013-05-26 04:46:00,
2013-05-26 00:51:00,39.3,34.0,29.75,NW,309,4.0,14.0,81,0.00,,,0.00,0.0,WUHU216DAVISWMX,2013-05-26 04:51:00,
2013-05-26 00:56:00,39.3,34.0,29.75,NW,305,1.0,14.0,81,0.00,,,0.00,0.0,WUHU216DAVISWMX,2013-05-26 04:56:00,
2013-05-26 01:01:00,39.3,34.0,29.75,WNW,302,4.0,15.0,81,0.00,,,0.00,0.0,WUHU216DAVISWMX,2013-05-26 05:01:00,
2013-05-26 01:06:00,39.3,34.0,29.74,WNW,295,3.0,15.0,81,0.00,,,0.00,0.0,WUHU216DAVISWMX,2013-05-26 05:06:00,
2013-05-26 01:11:00,39.3,34.0,29.74,NNW,338,6.0,17.0,81,0.00,,,0.00,0.0,WUHU216DAVISWMX,2013-05-26 05:11:00,
2013-05-26 01:16:00,39.3,34.0,29.74,NW,325,3.0,17.0,81,0.00,,,0.00,0.0,WUHU216DAVISWMX,2013-05-26 05:16:00,
2013-05-26 01:21:00,39.3,34.0,29.74,NW,316,4.0,14.0,81,0.00,,,0.00,0.0,WUHU216DAVISWMX,2013-05-26 05:21:00,
2013-05-26 01:26:00,39.2,33.9,29.75,WNW,302,3.0,14.0,81,0.00,,,0.00,0.0,WUHU216DAVISWMX,2013-05-26 05:26:00,
2013-05-26 01:31:00,39.2,33.9,29.75,NW,307,3.0,13.0,81,0.00,,,0.00,0.0,WUHU216DAVISWMX,2013-05-26 05:31:00,
2013-05-26 01:36:00,39.1,33.8,29.74,WNW,290,5.0,13.0,81,0.00,,,0.00,0.0,WUHU216DAVISWMX,2013-05-26 05:36:00,
2013-05-26 01:41:00,39.1,33.8,29.74,WNW,284,6.0,12.0,81,0.00,,,0.00,0.0,WUHU216DAVISWMX,2013-05-26 05:41:00,
2013-05-26 01:46:00,38.9,33.9,29.74,WNW,294,6.0,11.0,82,0.00,,,0.00,0.0,WUHU216DAVISWMX,2013-05-26 05:46:00,
2013-05-26 01:51:00,38.8,34.1,29.74,WNW,303,2.0,12.0,83,0.00,,,0.00,0.0,WUHU216DAVISWMX,2013-05-26 05:51:00,
2013-05-26 01:56:00,38.8,34.1,29.74,WNW,294,0.0,12.0,83,0.00,,,0.00,0.0,WUHU216DAVISWMX,2013-05-26 05:56:00,
2013-05-26 02:02:00,38.7,34.0,29.74,WNW,300,5.0,11.0,83,0.00,,,0.00,0.0,WUHU216DAVISWMX,2013-05-26 06:02:00,
2013-05-26 02:07:00,38.7,34.3,29.74,NW,310,10.0,10.0,84,0.00,,,0.00,0.0,WUHU216DAVISWMX,2013-05-26 06:07:00,
2013-05-26 02:12:00,38.7,34.3,29.73,NW,305,3.0,10.0,84,0.00,,,0.00,0.0,WUHU216DAVISWMX,2013-05-26 06:12:00,
2013-05-26 02:17:00,38.7,34.3,29.74,NW,323,4.0,9.0,84,0.00,,,0.00,0.0,WUHU216DAVISWMX,2013-05-26 06:17:00,
2013-05-26 02:22:00,38.7,34.3,29.73,NW,312,4.0,9.0,84,0.00,,,0.00,0.0,WUHU216DAVISWMX,2013-05-26 06:22:00,
2013-05-26 02:27:00,38.7,34.3,29.73,NNW,334,2.0,9.0,84,0.00,,,0.00,0.0,WUHU216DAVISWMX,2013-05-26 06:27:00,
2013-05-26 02:32:00,38.7,34.3,29.73,NW,314,1.0,12.0,84,0.00,,,0.00,0.0,WUHU216DAVISWMX,2013-05-26 06:32:00,
2013-05-26 02:37:00,38.7,34.3,29.73,NW,316,5.0,12.0,84,0.00,,,0.00,0.0,WUHU216DAVISWMX,2013-05-26 06:37:00,
2013-05-26 02:42:00,38.7,34.3,29.73,WNW,301,2.0,8.0,84,0.00,,,0.00,0.0,WUHU216DAVISWMX,2013-05-26 06:42:00,
2013-05-26 02:47:00,38.7,34.3,29.73,NW,314,10.0,10.0,84,0.00,,,0.00,0.0,WUHU216DAVISWMX,2013-05-26 06:47:00,
2013-05-26 02:52:00,38.7,34.3,29.73,WNW,289,5.0,10.0,84,0.00,,,0.00,0.0,WUHU216DAVISWMX,2013-05-26 06:52:00,
2013-05-26 02:57:00,38.8,34.4,29.73,WNW,297,7.0,9.0,84,0.00,,,0.00,0.0,WUHU216DAVISWMX,2013-05-26 06:57:00,
2013-05-26 03:02:00,38.9,34.5,29.73,NW,309,5.0,9.0,84,0.00,,,0.00,0.0,WUHU216DAVISWMX,2013-05-26 07:02:00,
2013-05-26 03:07:00,38.9,34.5,29.73,WNW,285,2.0,7.0,84,0.00,,,0.00,0.0,WUHU216DAVISWMX,2013-05-26 07:07:00,
2013-05-26 03:12:00,38.9,34.5,29.73,NW,320,7.0,8.0,84,0.01,,,0.01,0.0,WUHU216DAVISWMX,2013-05-26 07:12:00,
2013-05-26 03:17:00,38.8,34.4,29.73,WNW,302,6.0,11.0,84,0.01,,,0.01,0.0,WUHU216DAVISWMX,2013-05-26 07:17:00,
2013-05-26 03:22:00,38.8,34.4,29.73,WNW,303,3.0,11.0,84,0.01,,,0.01,0.0,WUHU216DAVISWMX,2013-05-26 07:22:00,
2013-05-26 03:27:00,38.7,34.6,29.73,WNW,297,1.0,10.0,85,0.02,,,0.02,0.0,WUHU216DAVISWMX,2013-05-26 07:27:00,
2013-05-26 03:32:00,38.7,34.6,29.73,NW,316,5.0,8.0,85,0.02,,,0.02,0.0,WUHU216DAVISWMX,2013-05-26 07:32:00,
2013-05-26 03:37:00,38.6,34.5,29.73,NW,313,0.0,9.0,85,0.03,,,0.03,0.0,WUHU216DAVISWMX,2013-05-26 07:37:00,
2013-05-26 03:42:00,38.6,34.7,29.73,NW,313,1.0,9.0,86,0.03,,,0.03,0.0,WUHU216DAVISWMX,2013-05-26 07:42:00,
2013-05-26 03:47:00,38.6,34.7,29.73,WNW,303,1.0,7.0,86,0.03,,,0.03,0.0,WUHU216DAVISWMX,2013-05-26 07:47:00,
2013-05-26 03:52:00,38.6,34.7,29.73,NNW,327,10.0,11.0,86,0.03,,,0.03,0.0,WUHU216DAVISWMX,2013-05-26 07:52:00,
2013-05-26 03:57:00,38.6,34.7,29.73,WNW,301,6.0,11.0,86,0.03,,,0.03,0.0,WUHU216DAVISWMX,2013-05-26 07:57:00,
2013-05-26 04:02:00,38.7,34.8,29.73,NW,315,1.0,7.0,86,0.03,,,0.03,0.0,WUHU216DAVISWMX,2013-05-26 08:02:00,
2013-05-26 04:07:00,38.6,35.0,29.73,WNW,302,3.0,7.0,87,0.04,,,0.04,0.0,WUHU216DAVISWMX,2013-05-26 08:07:00,
2013-05-26 04:12:00,38.7,35.1,29.73,WNW,299,0.0,7.0,87,0.03,,,0.04,0.0,WUHU216DAVISWMX,2013-05-26 08:12:00,
2013-05-26 04:17:00,38.7,35.1,29.73,NW,315,4.0,7.0,87,0.03,,,0.04,0.0,WUHU216DAVISWMX,2013-05-26 08:17:00,
2013-05-26 04:22:00,38.7,35.1,29.74,WNW,292,4.0,6.0,87,0.03,,,0.04,0.0,WUHU216DAVISWMX,2013-05-26 08:22:00,
2013-05-26 04:27:00,38.7,35.1,29.74,NW,306,4.0,6.0,87,0.02,,,0.04,0.0,WUHU216DAVISWMX,2013-05-26 08:27:00,
2013-05-26 04:32:00,38.8,35.2,29.74,WNW,300,3.0,8.0,87,0.02,,,0.04,0.0,WUHU216DAVISWMX,2013-05-26 08:32:00,
2013-05-26 04:37:00,38.8,35.2,29.74,NW,313,2.0,9.0,87,0.01,,,0.04,0.0,WUHU216DAVISWMX,2013-05-26 08:37:00,
2013-05-26 04:42:00,38.9,35.3,29.74,NW,315,6.0,9.0,87,0.01,,,0.04,0.0,WUHU216DAVISWMX,2013-05-26 08:42:00,
2013-05-26 04:47:00,38.9,35.3,29.74,NW,326,2.0,10.0,87,0.01,,,0.04,0.0,WUHU216DAVISWMX,2013-05-26 08:47:00,
2013-05-26 04:52:00,39.0,35.1,29.74,WNW,300,3.0,11.0,86,0.01,,,0.04,0.0,WUHU216DAVISWMX,2013-05-26 08:52:00,
2013-05-26 04:57:00,39.0,35.1,29.74,NW,308,3.0,11.0,86,0.01,,,0.04,0.0,WUHU216DAVISWMX,2013-05-26 08:57:00,
2013-05-26 05:02:00,39.1,35.2,29.74,NW,315,5.0,10.0,86,0.01,,,0.04,0.0,WUHU216DAVISWMX,2013-05-26 09:02:00,
2013-05-26 05:07:00,39.2,35.3,29.74,WNW,303,4.0,11.0,86,0.00,,,0.04,0.0,WUHU216DAVISWMX,2013-05-26 09:07:00,
2013-05-26 05:12:00,39.2,35.3,29.74,WNW,288,4.0,11.0,86,0.00,,,0.04,0.0,WUHU216DAVISWMX,2013-05-26 09:12:00,
2013-05-26 05:17:00,39.3,35.4,29.74,WNW,302,5.0,10.0,86,0.00,,,0.04,0.0,WUHU216DAVISWMX,2013-05-26 09:17:00,
2013-05-26 05:22:00,39.3,35.4,29.75,NW,320,5.0,11.0,86,0.00,,,0.04,0.0,WUHU216DAVISWMX,2013-05-26 09:22:00,
2013-05-26 05:27:00,39.4,35.2,29.75,WNW,300,0.0,12.0,85,0.00,,,0.04,0.0,WUHU216DAVISWMX,2013-05-26 09:27:00,
2013-05-26 05:32:00,39.4,35.2,29.75,NW,315,2.0,12.0,85,0.00,,,0.04,0.0,WUHU216DAVISWMX,2013-05-26 09:32:00,
2013-05-26 05:37:00,39.5,35.3,29.75,WNW,298,11.0,11.0,85,0.00,,,0.04,0.0,WUHU216DAVISWMX,2013-05-26 09:37:00,
2013-05-26 05:42:00,39.6,35.2,29.75,NW,317,3.0,13.0,84,0.00,,,0.04,0.0,WUHU216DAVISWMX,2013-05-26 09:42:00,
2013-05-26 05:47:00,39.7,35.2,29.76,WSW,237,3.0,13.0,84,0.00,,,0.04,0.0,WUHU216DAVISWMX,2013-05-26 09:47:00,
2013-05-26 05:52:00,39.8,35.3,29.76,NW,310,3.0,8.0,84,0.00,,,0.04,0.0,WUHU216DAVISWMX,2013-05-26 09:52:00,
2013-05-26 05:57:00,39.8,35.3,29.76,NW,306,8.0,11.0,84,0.00,,,0.04,0.0,WUHU216DAVISWMX,2013-05-26 09:57:00,
2013-05-26 06:02:00,40.0,35.5,29.76,NW,306,10.0,12.0,84,0.00,,,0.04,0.0,WUHU216DAVISWMX,2013-05-26 10:02:00,
2013-05-26 06:07:00,40.1,35.3,29.76,NW,308,5.0,12.0,83,0.00,,,0.04,0.0,WUHU216DAVISWMX,2013-05-26 10:07:00,
2013-05-26 06:12:00,40.2,35.7,29.76,WNW,301,8.0,15.0,84,0.00,,,0.04,0.0,WUHU216DAVISWMX,2013-05-26 10:12:00,
2013-05-26 06:17:00,40.3,35.8,29.76,WNW,295,0.0,15.0,84,0.00,,,0.04,0.0,WUHU216DAVISWMX,2013-05-26 10:17:00,
2013-05-26 06:22:00,40.3,35.5,29.76,NW,310,2.0,14.0,83,0.00,,,0.04,0.0,WUHU216DAVISWMX,2013-05-26 10:22:00,
2013-05-26 06:27:00,40.3,35.5,29.77,WNW,296,4.0,14.0,83,0.00,,,0.04,0.0,WUHU216DAVISWMX,2013-05-26 10:27:00,
2013-05-26 06:32:00,40.3,35.5,29.77,WSW,255,5.0,9.0,83,0.00,,,0.04,0.0,WUHU216DAVISWMX,2013-05-26 10:32:00,
2013-05-26 06:37:00,40.4,35.6,29.77,NW,310,4.0,12.0,83,0.00,,,0.04,0.0,WUHU216DAVISWMX,2013-05-26 10:37:00,
2013-05-26 06:42:00,40.4,35.6,29.77,NNW,332,2.0,12.0,83,0.00,,,0.04,0.0,WUHU216DAVISWMX,2013-05-26 10:42:00,
2013-05-26 06:47:00,40.5,35.7,29.77,NNW,327,4.0,12.0,83,0.00,,,0.04,0.0,WUHU216DAVISWMX,2013-05-26 10:47:00,
2013-05-26 06:52:00,40.6,35.8,29.77,NW,323,11.0,15.0,83,0.00,,,0.04,0.0,WUHU216DAVISWMX,2013-05-26 10:52:00,
2013-05-26 06:57:00,40.7,35.9,29.77,NNW,334,3.0,15.0,83,0.00,,,0.04,0.0,WUHU216DAVISWMX,2013-05-26 10:57:00,
2013-05-26 07:02:00,40.7,35.6,29.77,NW,312,3.0,17.0,82,0.00,,,0.04,0.0,WUHU216DAVISWMX,2013-05-26 11:02:00,
2013-05-26 07:07:00,40.8,35.7,29.77,NW,320,7.0,17.0,82,0.00,,,0.04,0.0,WUHU216DAVISWMX,2013-05-26 11:07:00,
2013-05-26 07:12:00,40.9,35.8,29.77,NW,321,4.0,14.0,82,0.00,,,0.04,0.0,WUHU216DAVISWMX,2013-05-26 11:12:00,
2013-05-26 07:17:00,41.0,35.9,29.78,NNW,333,5.0,14.0,82,0.00,,,0.04,0.0,WUHU216DAVISWMX,2013-05-26 11:17:00,
2013-05-26 07:22:00,41.0,35.9,29.78,NNW,330,4.0,14.0,82,0.00,,,0.04,0.0,WUHU216DAVISWMX,2013-05-26 11:22:00,
2013-05-26 07:27:00,41.0,35.9,29.78,NNW,330,6.0,12.0,82,0.00,,,0.04,0.0,WUHU216DAVISWMX,2013-05-26 11:27:00,
2013-05-26 07:32:00,41.2,36.1,29.78,NW,312,4.0,12.0,82,0.00,,,0.04,0.0,WUHU216DAVISWMX,2013-05-26 11:32:00,
2013-05-26 07:37:00,41.4,36.3,29.78,NW,310,7.0,13.0,82,0.00,,,0.04,0.0,WUHU216DAVISWMX,2013-05-26 11:37:00,
2013-05-26 07:42:00,41.7,36.6,29.79,NNW,330,2.0,13.0,82,0.00,,,0.04,0.0,WUHU216DAVISWMX,2013-05-26 11:42:00,
2013-05-26 07:47:00,41.9,36.5,29.79,NW,320,3.0,11.0,81,0.00,,,0.04,0.0,WUHU216DAVISWMX,2013-05-26 11:47:00,
2013-05-26 07:52:00,42.1,36.7,29.79,West,267,3.0,11.0,81,0.00,,,0.04,0.0,WUHU216DAVISWMX,2013-05-26 11:52:00,
2013-05-26 07:57:00,42.3,36.6,29.79,WNW,294,4.0,10.0,80,0.00,,,0.04,0.0,WUHU216DAVISWMX,2013-05-26 11:57:00,
2013-05-26 08:02:00,42.5,36.8,29.79,NW,317,4.0,13.0,80,0.00,,,0.04,0.0,WUHU216DAVISWMX,2013-05-26 12:02:00,
2013-05-26 08:07:00,42.7,36.7,29.80,NNW,331,3.0,13.0,79,0.00,,,0.04,0.0,WUHU216DAVISWMX,2013-05-26 12:07:00,
2013-05-26 08:12:00,43.1,37.1,29.80,NW,317,4.0,14.0,79,0.00,,,0.04,0.0,WUHU216DAVISWMX,2013-05-26 12:12:00,
2013-05-26 08:17:00,43.4,37.0,29.80,NW,306,7.0,14.0,78,0.00,,,0.04,0.0,WUHU216DAVISWMX,2013-05-26 12:17:00,
2013-05-26 08:22:00,43.6,36.9,29.80,NW,310,3.0,15.0,77,0.00,,,0.04,0.0,WUHU216DAVISWMX,2013-05-26 12:22:00,
2013-05-26 08:28:00,43.7,36.7,29.80,WNW,302,5.0,15.0,76,0.00,,,0.04,0.0,WUHU216DAVISWMX,2013-05-26 12:28:00,
2013-05-26 08:32:00,44.0,37.0,29.81,NW,312,4.0,13.0,76,0.00,,,0.04,0.0,WUHU216DAVISWMX,2013-05-26 12:32:00,
2013-05-26 08:38:00,44.2,36.8,29.81,NW,324,4.0,11.0,75,0.00,,,0.04,0.0,WUHU216DAVISWMX,2013-05-26 12:38:00,
2013-05-26 08:43:00,44.5,37.1,29.81,WNW,303,2.0,10.0,75,0.00,,,0.04,0.0,WUHU216DAVISWMX,2013-05-26 12:43:00,
2013-05-26 08:48:00,44.9,37.8,29.81,WNW,301,4.0,16.0,76,0.00,,,0.04,0.0,WUHU216DAVISWMX,2013-05-26 12:48:00,
2013-05-26 08:53:00,45.3,37.9,29.81,NW,324,2.0,16.0,75,0.00,,,0.04,0.0,WUHU216DAVISWMX,2013-05-26 12:53:00,
2013-05-26 08:58:00,45.6,38.2,29.81,NW,309,5.0,13.0,75,0.00,,,0.04,0.0,WUHU216DAVISWMX,2013-05-26 12:58:00,
2013-05-26 09:03:00,45.9,38.2,29.82,NNW,337,3.0,16.0,74,0.00,,,0.04,0.0,WUHU216DAVISWMX,2013-05-26 13:03:00,
2013-05-26 09:08:00,46.0,37.9,29.81,NW,316,6.0,16.0,73,0.00,,,0.04,0.0,WUHU216DAVISWMX,2013-05-26 13:08:00,
2013-05-26 09:13:00,46.2,37.8,29.81,NW,311,6.0,16.0,72,0.00,,,0.04,0.0,WUHU216DAVISWMX,2013-05-26 13:13:00,
2013-05-26 09:18:00,46.4,37.6,29.82,NNW,337,6.0,14.0,71,0.00,,,0.04,0.0,WUHU216DAVISWMX,2013-05-26 13:18:00,
2013-05-26 09:23:00,46.6,37.4,29.82,NW,322,4.0,13.0,70,0.00,,,0.04,0.0,WUHU216DAVISWMX,2013-05-26 13:23:00,
2013-05-26 09:28:00,46.7,37.5,29.81,North,0,4.0,17.0,70,0.00,,,0.04,0.0,WUHU216DAVISWMX,2013-05-26 13:28:00,
2013-05-26 09:33:00,47.1,37.9,29.81,NW,320,9.0,17.0,70,0.00,,,0.04,0.0,WUHU216DAVISWMX,2013-05-26 13:33:00,
2013-05-26 09:38:00,48.0,38.8,29.81,NW,305,4.0,13.0,70,0.00,,,0.04,0.0,WUHU216DAVISWMX,2013-05-26 13:38:00,
2013-05-26 09:43:00,48.8,38.8,29.81,WNW,302,1.0,10.0,68,0.00,,,0.04,0.0,WUHU216DAVISWMX,2013-05-26 13:43:00,
2013-05-26 09:48:00,49.1,38.3,29.82,NW,309,12.0,16.0,66,0.00,,,0.04,0.0,WUHU216DAVISWMX,2013-05-26 13:48:00,
2013-05-26 09:53:00,49.4,38.2,29.81,NW,308,7.0,16.0,65,0.00,,,0.04,0.0,WUHU216DAVISWMX,2013-05-26 13:53:00,
2013-05-26 09:58:00,49.3,38.1,29.82,NW,323,8.0,16.0,65,0.00,,,0.04,0.0,WUHU216DAVISWMX,2013-05-26 13:58:00,
2013-05-26 10:03:00,49.6,38.4,29.82,NW,325,7.0,16.0,65,0.00,,,0.04,0.0,WUHU216DAVISWMX,2013-05-26 14:03:00,
2013-05-26 10:08:00,50.1,38.9,29.83,WNW,291,8.0,13.0,65,0.00,,,0.04,0.0,WUHU216DAVISWMX,2013-05-26 14:08:00,
2013-05-26 10:13:00,50.1,38.5,29.83,NW,326,5.0,13.0,64,0.00,,,0.04,0.0,WUHU216DAVISWMX,2013-05-26 14:13:00,
2013-05-26 10:18:00,49.9,37.9,29.83,NW,315,10.0,16.0,63,0.00,,,0.04,0.0,WUHU216DAVISWMX,2013-05-26 14:18:00,
2013-05-26 10:23:00,49.9,37.5,29.83,WNW,299,15.0,16.0,62,0.00,,,0.04,0.0,WUHU216DAVISWMX,2013-05-26 14:23:00,
2013-05-26 10:28:00,50.0,37.6,29.84,NW,308,6.0,18.0,62,0.00,,,0.04,0.0,WUHU216DAVISWMX,2013-05-26 14:28:00,
2013-05-26 10:33:00,50.1,38.1,29.83,NNW,327,7.0,18.0,63,0.00,,,0.04,0.0,WUHU216DAVISWMX,2013-05-26 14:33:00,
2013-05-26 10:38:00,50.3,37.5,29.84,NW,316,5.0,16.0,61,0.00,,,0.04,0.0,WUHU216DAVISWMX,2013-05-26 14:38:00,
2013-05-26 10:43:00,50.6,38.2,29.83,WNW,300,8.0,14.0,62,0.00,,,0.04,0.0,WUHU216DAVISWMX,2013-05-26 14:43:00,
2013-05-26 10:48:00,50.9,38.0,29.83,WNW,301,10.0,18.0,61,0.00,,,0.04,0.0,WUHU216DAVISWMX,2013-05-26 14:48:00,
2013-05-26 10:53:00,51.1,37.8,29.83,WNW,301,0.0,18.0,60,0.00,,,0.04,0.0,WUHU216DAVISWMX,2013-05-26 14:53:00,
2013-05-26 10:58:00,51.5,38.6,29.83,NW,311,8.0,15.0,61,0.00,,,0.04,0.0,WUHU216DAVISWMX,2013-05-26 14:58:00,
2013-05-26 11:03:00,52.0,38.2,29.83,NW,306,3.0,10.0,59,0.00,,,0.04,0.0,WUHU216DAVISWMX,2013-05-26 15:03:00,
2013-05-26 11:08:00,52.1,38.3,29.83,NW,309,7.0,14.0,59,0.00,,,0.04,0.0,WUHU216DAVISWMX,2013-05-26 15:08:00,
2013-05-26 11:13:00,52.2,38.4,29.84,West,268,6.0,16.0,59,0.00,,,0.04,0.0,WUHU216DAVISWMX,2013-05-26 15:13:00,
2013-05-26 11:18:00,52.5,37.8,29.84,NW,313,7.0,16.0,57,0.00,,,0.04,0.0,WUHU216DAVISWMX,2013-05-26 15:18:00,
2013-05-26 11:23:00,52.6,37.4,29.84,WNW,293,8.0,14.0,56,0.00,,,0.04,0.0,WUHU216DAVISWMX,2013-05-26 15:23:00,
2013-05-26 11:28:00,52.4,37.2,29.84,WNW,283,8.0,14.0,56,0.00,,,0.04,0.0,WUHU216DAVISWMX,2013-05-26 15:28:00,
2013-05-26 11:33:00,52.6,37.9,29.84,WNW,303,12.0,14.0,57,0.00,,,0.04,0.0,WUHU216DAVISWMX,2013-05-26 15:33:00,
2013-05-26 11:38:00,53.0,37.8,29.85,NW,308,13.0,15.0,56,0.00,,,0.04,0.0,WUHU216DAVISWMX,2013-05-26 15:38:00,
2013-05-26 11:43:00,53.1,37.4,29.84,SW,226,3.0,16.0,55,0.00,,,0.04,0.0,WUHU216DAVISWMX,2013-05-26 15:43:00,
2013-05-26 11:48:00,53.3,38.1,29.84,WNW,295,3.0,16.0,56,0.00,,,0.04,0.0,WUHU216DAVISWMX,2013-05-26 15:48:00,
2013-05-26 11:53:00,53.2,38.0,29.85,WNW,291,0.0,17.0,56,0.00,,,0.04,0.0,WUHU216DAVISWMX,2013-05-26 15:53:00,
2013-05-26 11:58:00,53.5,38.3,29.85,NW,304,6.0,17.0,56,0.00,,,0.04,0.0,WUHU216DAVISWMX,2013-05-26 15:58:00,
2013-05-26 12:03:00,53.6,37.4,29.85,NW,304,4.0,12.0,54,0.00,,,0.04,0.0,WUHU216DAVISWMX,2013-05-26 16:03:00,
2013-05-26 12:08:00,53.6,38.3,29.85,NW,325,4.0,13.0,56,0.00,,,0.04,0.0,WUHU216DAVISWMX,2013-05-26 16:08:00,
2013-05-26 12:13:00,53.7,37.5,29.85,NNW,346,5.0,16.0,54,0.00,,,0.04,0.0,WUHU216DAVISWMX,2013-05-26 16:13:00,
2013-05-26 12:18:00,53.6,37.9,29.85,North,7,5.0,21.0,55,0.00,,,0.04,0.0,WUHU216DAVISWMX,2013-05-26 16:18:00,
2013-05-26 12:23:00,53.8,38.5,29.85,NNW,344,3.0,21.0,56,0.00,,,0.04,0.0,WUHU216DAVISWMX,2013-05-26 16:23:00,
2013-05-26 12:28:00,54.2,38.9,29.85,NW,311,2.0,15.0,56,0.00,,,0.04,0.0,WUHU216DAVISWMX,2013-05-26 16:28:00,
2013-05-26 12:33:00,54.5,38.7,29.86,WNW,300,6.0,15.0,55,0.00,,,0.04,0.0,WUHU216DAVISWMX,2013-05-26 16:33:00,
2013-05-26 12:38:00,54.6,38.8,29.85,WNW,286,7.0,12.0,55,0.00,,,0.04,0.0,WUHU216DAVISWMX,2013-05-26 16:38:00,
2013-05-26 12:43:00,54.2,38.0,29.86,NW,311,4.0,14.0,54,0.00,,,0.04,0.0,WUHU216DAVISWMX,2013-05-26 16:43:00,
2013-05-26 12:48:00,53.9,37.7,29.86,WNW,298,4.0,15.0,54,0.00,,,0.04,0.0,WUHU216DAVISWMX,2013-05-26 16:48:00,
2013-05-26 12:53:00,53.5,36.8,29.86,NW,308,8.0,15.0,53,0.00,,,0.04,0.0,WUHU216DAVISWMX,2013-05-26 16:53:00,
2013-05-26 12:58:00,53.3,37.6,29.86,WNW,300,0.0,14.0,55,0.00,,,0.04,0.0,WUHU216DAVISWMX,2013-05-26 16:58:00,
2013-05-26 13:03:00,53.4,38.6,29.87,WNW,298,5.0,14.0,57,0.00,,,0.04,0.0,WUHU216DAVISWMX,2013-05-26 17:03:00,
2013-05-26 13:08:00,53.3,38.1,29.87,WNW,292,4.0,12.0,56,0.00,,,0.04,0.0,WUHU216DAVISWMX,2013-05-26 17:08:00,
2013-05-26 13:13:00,53.2,38.0,29.87,WNW,283,2.0,18.0,56,0.00,,,0.04,0.0,WUHU216DAVISWMX,2013-05-26 17:13:00,
2013-05-26 13:18:00,53.5,38.3,29.87,NW,310,7.0,18.0,56,0.00,,,0.04,0.0,WUHU216DAVISWMX,2013-05-26 17:18:00,
2013-05-26 13:23:00,53.9,38.6,29.87,NW,317,1.0,11.0,56,0.00,,,0.04,0.0,WUHU216DAVISWMX,2013-05-26 17:23:00,
2013-05-26 13:28:00,54.0,38.7,29.87,NW,321,18.0,18.0,56,0.00,,,0.04,0.0,WUHU216DAVISWMX,2013-05-26 17:28:00,
2013-05-26 13:33:00,53.9,39.1,29.88,WNW,283,3.0,18.0,57,0.00,,,0.04,0.0,WUHU216DAVISWMX,2013-05-26 17:33:00,
2013-05-26 13:38:00,53.8,38.1,29.88,WNW,298,7.0,19.0,55,0.00,,,0.04,0.0,WUHU216DAVISWMX,2013-05-26 17:38:00,
2013-05-26 13:43:00,53.7,38.9,29.88,NW,307,1.0,19.0,57,0.00,,,0.04,0.0,WUHU216DAVISWMX,2013-05-26 17:43:00,
2013-05-26 13:48:00,54.4,39.6,29.88,NW,309,10.0,11.0,57,0.00,,,0.04,0.0,WUHU216DAVISWMX,2013-05-26 17:48:00,
2013-05-26 13:53:00,54.8,39.0,29.88,NW,309,8.0,16.0,55,0.00,,,0.04,0.0,WUHU216DAVISWMX,2013-05-26 17:53:00,
2013-05-26 13:58:00,54.3,38.1,29.88,NW,309,4.0,16.0,54,0.00,,,0.04,0.0,WUHU216DAVISWMX,2013-05-26 17:58:00,
2013-05-26 14:03:00,54.1,38.3,29.89,NW,312,2.0,15.0,55,0.00,,,0.04,0.0,WUHU216DAVISWMX,2013-05-26 18:03:00,
2013-05-26 14:09:00,54.2,38.4,29.89,WNW,290,3.0,14.0,55,0.00,,,0.04,0.0,WUHU216DAVISWMX,2013-05-26 18:09:00,
2013-05-26 14:14:00,54.3,38.5,29.89,NW,304,6.0,14.0,55,0.00,,,0.04,0.0,WUHU216DAVISWMX,2013-05-26 18:14:00,
2013-05-26 14:19:00,54.0,37.8,29.89,NW,309,9.0,14.0,54,0.00,,,0.04,0.0,WUHU216DAVISWMX,2013-05-26 18:19:00,
2013-05-26 14:24:00,54.0,38.3,29.89,WNW,300,7.0,12.0,55,0.00,,,0.04,0.0,WUHU216DAVISWMX,2013-05-26 18:24:00,
2013-05-26 14:29:00,53.9,37.7,29.89,NW,309,2.0,16.0,54,0.00,,,0.04,0.0,WUHU216DAVISWMX,2013-05-26 18:29:00,
2013-05-26 14:34:00,53.7,38.0,29.90,NW,309,1.0,16.0,55,0.00,,,0.04,0.0,WUHU216DAVISWMX,2013-05-26 18:34:00,
2013-05-26 14:39:00,53.7,38.0,29.90,NW,318,4.0,12.0,55,0.00,,,0.04,0.0,WUHU216DAVISWMX,2013-05-26 18:39:00,
2013-05-26 14:44:00,53.4,37.7,29.90,NNW,328,1.0,14.0,55,0.00,,,0.04,0.0,WUHU216DAVISWMX,2013-05-26 18:44:00,
2013-05-26 14:49:00,53.5,38.7,29.90,WNW,302,5.0,14.0,57,0.00,,,0.04,0.0,WUHU216DAVISWMX,2013-05-26 18:49:00,
2013-05-26 14:54:00,53.9,39.1,29.90,NW,307,8.0,13.0,57,0.00,,,0.04,0.0,WUHU216DAVISWMX,2013-05-26 18:54:00,
2013-05-26 14:59:00,53.8,39.0,29.90,NW,322,7.0,15.0,57,0.00,,,0.04,0.0,WUHU216DAVISWMX,2013-05-26 18:59:00,
2013-05-26 15:04:00,53.3,39.0,29.90,WNW,284,3.0,15.0,58,0.00,,,0.04,0.0,WUHU216DAVISWMX,2013-05-26 19:04:00,
2013-05-26 15:09:00,53.2,39.8,29.91,WNW,289,2.0,12.0,60,0.00,,,0.04,0.0,WUHU216DAVISWMX,2013-05-26 19:09:00,
2013-05-26 15:14:00,53.2,38.9,29.91,NW,315,4.0,12.0,58,0.00,,,0.04,0.0,WUHU216DAVISWMX,2013-05-26 19:14:00,
2013-05-26 15:19:00,53.6,38.8,29.91,NW,323,7.0,12.0,57,0.00,,,0.04,0.0,WUHU216DAVISWMX,2013-05-26 19:19:00,
2013-05-26 15:24:00,53.4,38.6,29.92,West,278,4.0,18.0,57,0.00,,,0.04,0.0,WUHU216DAVISWMX,2013-05-26 19:24:00,
2013-05-26 15:29:00,53.2,38.4,29.92,NW,305,6.0,18.0,57,0.00,,,0.04,0.0,WUHU216DAVISWMX,2013-05-26 19:29:00,
2013-05-26 15:34:00,53.1,38.8,29.92,WNW,286,3.0,14.0,58,0.00,,,0.04,0.0,WUHU216DAVISWMX,2013-05-26 19:34:00,
2013-05-26 15:39:00,53.2,38.9,29.92,NW,313,3.0,12.0,58,0.00,,,0.04,0.0,WUHU216DAVISWMX,2013-05-26 19:39:00,
2013-05-26 15:44:00,53.7,38.0,29.92,WNW,290,5.0,17.0,55,0.00,,,0.04,0.0,WUHU216DAVISWMX,2013-05-26 19:44:00,
2013-05-26 15:49:00,54.1,37.4,29.92,NW,312,5.0,17.0,53,0.00,,,0.04,0.0,WUHU216DAVISWMX,2013-05-26 19:49:00,
2013-05-26 15:54:00,54.3,37.1,29.92,WNW,302,3.0,19.0,52,0.00,,,0.04,0.0,WUHU216DAVISWMX,2013-05-26 19:54:00,
2013-05-26 15:59:00,54.3,37.1,29.92,NW,320,5.0,19.0,52,0.00,,,0.04,0.0,WUHU216DAVISWMX,2013-05-26 19:59:00,
2013-05-26 16:04:00,54.5,36.2,29.93,WNW,286,12.0,18.0,50,0.00,,,0.04,0.0,WUHU216DAVISWMX,2013-05-26 20:04:00,
2013-05-26 16:09:00,54.6,35.8,29.93,NW,317,15.0,20.0,49,0.00,,,0.04,0.0,WUHU216DAVISWMX,2013-05-26 20:09:00,
2013-05-26 16:14:00,54.7,36.4,29.93,NW,321,3.0,20.0,50,0.00,,,0.04,0.0,WUHU216DAVISWMX,2013-05-26 20:14:00,
2013-05-26 16:19:00,54.7,36.4,29.93,WNW,286,0.0,11.0,50,0.00,,,0.04,0.0,WUHU216DAVISWMX,2013-05-26 20:19:00,
2013-05-26 16:24:00,54.7,36.9,29.93,NW,320,5.0,12.0,51,0.00,,,0.04,0.0,WUHU216DAVISWMX,2013-05-26 20:24:00,
2013-05-26 16:29:00,54.6,36.3,29.94,NW,306,2.0,15.0,50,0.00,,,0.04,0.0,WUHU216DAVISWMX,2013-05-26 20:29:00,
2013-05-26 16:34:00,54.4,35.6,29.94,WNW,297,2.0,15.0,49,0.00,,,0.04,0.0,WUHU216DAVISWMX,2013-05-26 20:34:00,
2013-05-26 16:39:00,54.2,35.9,29.94,NW,316,10.0,19.0,50,0.00,,,0.04,0.0,WUHU216DAVISWMX,2013-05-26 20:39:00,
2013-05-26 16:44:00,54.1,36.4,29.94,WNW,293,7.0,19.0,51,0.00,,,0.04,0.0,WUHU216DAVISWMX,2013-05-26 20:44:00,
2013-05-26 16:49:00,54.0,36.3,29.94,West,279,6.0,17.0,51,0.00,,,0.04,0.0,WUHU216DAVISWMX,2013-05-26 20:49:00,
2013-05-26 16:54:00,53.9,35.7,29.94,WNW,298,6.0,18.0,50,0.00,,,0.04,0.0,WUHU216DAVISWMX,2013-05-26 20:54:00,
2013-05-26 16:59:00,53.9,35.7,29.95,NW,315,12.0,18.0,50,0.00,,,0.04,0.0,WUHU216DAVISWMX,2013-05-26 20:59:00,
2013-05-26 17:04:00,53.8,35.6,29.95,WNW,303,9.0,17.0,50,0.00,,,0.04,0.0,WUHU216DAVISWMX,2013-05-26 21:04:00,
2013-05-26 17:09:00,53.8,36.1,29.95,WNW,295,8.0,14.0,51,0.00,,,0.04,0.0,WUHU216DAVISWMX,2013-05-26 21:09:00,
2013-05-26 17:14:00,53.7,35.5,29.96,NNW,330,3.0,14.0,50,0.00,,,0.04,0.0,WUHU216DAVISWMX,2013-05-26 21:14:00,
2013-05-26 17:19:00,53.6,35.4,29.96,WNW,288,5.0,14.0,50,0.00,,,0.04,0.0,WUHU216DAVISWMX,2013-05-26 21:19:00,
2013-05-26 17:24:00,53.7,36.0,29.96,NW,307,7.0,13.0,51,0.00,,,0.04,0.0,WUHU216DAVISWMX,2013-05-26 21:24:00,
2013-05-26 17:29:00,53.8,36.1,29.97,NNW,329,7.0,20.0,51,0.00,,,0.04,0.0,WUHU216DAVISWMX,2013-05-26 21:29:00,
2013-05-26 17:34:00,53.8,35.6,29.97,NW,309,9.0,20.0,50,0.00,,,0.04,0.0,WUHU216DAVISWMX,2013-05-26 21:34:00,
2013-05-26 17:39:00,53.8,35.6,29.97,WNW,298,5.0,13.0,50,0.00,,,0.04,0.0,WUHU216DAVISWMX,2013-05-26 21:39:00,
2013-05-26 17:44:00,53.8,35.6,29.97,NW,307,3.0,13.0,50,0.00,,,0.04,0.0,WUHU216DAVISWMX,2013-05-26 21:44:00,
2013-05-26 17:49:00,53.8,35.6,29.97,West,279,4.0,12.0,50,0.00,,,0.04,0.0,WUHU216DAVISWMX,2013-05-26 21:49:00,
2013-05-26 17:54:00,53.9,36.2,29.97,NW,323,3.0,18.0,51,0.00,,,0.04,0.0,WUHU216DAVISWMX,2013-05-26 21:54:00,
2013-05-26 17:59:00,54.1,36.4,29.97,NW,323,7.0,18.0,51,0.00,,,0.04,0.0,WUHU216DAVISWMX,2013-05-26 21:59:00,
2013-05-26 18:04:00,54.0,36.3,29.98,NW,305,1.0,13.0,51,0.00,,,0.04,0.0,WUHU216DAVISWMX,2013-05-26 22:04:00,
2013-05-26 18:09:00,53.9,36.2,29.98,NW,312,14.0,19.0,51,0.00,,,0.04,0.0,WUHU216DAVISWMX,2013-05-26 22:09:00,
2013-05-26 18:14:00,53.8,36.6,29.98,NW,305,6.0,19.0,52,0.00,,,0.04,0.0,WUHU216DAVISWMX,2013-05-26 22:14:00,
2013-05-26 18:19:00,53.6,36.4,29.99,WNW,288,3.0,12.0,52,0.00,,,0.04,0.0,WUHU216DAVISWMX,2013-05-26 22:19:00,
2013-05-26 18:24:00,53.6,36.4,29.99,NW,305,6.0,11.0,52,0.00,,,0.04,0.0,WUHU216DAVISWMX,2013-05-26 22:24:00,
2013-05-26 18:29:00,53.5,36.8,29.99,WNW,291,12.0,13.0,53,0.00,,,0.04,0.0,WUHU216DAVISWMX,2013-05-26 22:29:00,
2013-05-26 18:34:00,53.5,36.8,30.00,NNW,336,3.0,13.0,53,0.00,,,0.04,0.0,WUHU216DAVISWMX,2013-05-26 22:34:00,
2013-05-26 18:39:00,53.5,36.8,30.00,NNW,343,7.0,16.0,53,0.00,,,0.04,0.0,WUHU216DAVISWMX,2013-05-26 22:39:00,
2013-05-26 18:44:00,53.8,37.1,30.00,NW,326,11.0,16.0,53,0.00,,,0.04,0.0,WUHU216DAVISWMX,2013-05-26 22:44:00,
2013-05-26 18:49:00,53.9,36.7,30.00,NW,307,13.0,18.0,52,0.00,,,0.04,0.0,WUHU216DAVISWMX,2013-05-26 22:49:00,
2013-05-26 18:54:00,53.7,37.0,30.01,NW,314,3.0,18.0,53,0.00,,,0.04,0.0,WUHU216DAVISWMX,2013-05-26 22:54:00,
2013-05-26 18:59:00,53.5,36.8,30.01,WNW,293,4.0,13.0,53,0.00,,,0.04,0.0,WUHU216DAVISWMX,2013-05-26 22:59:00,
2013-05-26 19:04:00,53.2,37.0,30.01,NW,314,7.0,17.0,54,0.00,,,0.04,0.0,WUHU216DAVISWMX,2013-05-26 23:04:00,
2013-05-26 19:09:00,53.1,36.4,30.02,NW,306,0.0,17.0,53,0.00,,,0.04,0.0,WUHU216DAVISWMX,2013-05-26 23:09:00,
2013-05-26 19:14:00,53.1,36.9,30.02,NW,311,9.0,17.0,54,0.00,,,0.04,0.0,WUHU216DAVISWMX,2013-05-26 23:14:00,
2013-05-26 19:19:00,53.0,36.8,30.02,WNW,299,6.0,18.0,54,0.00,,,0.04,0.0,WUHU216DAVISWMX,2013-05-26 23:19:00,
2013-05-26 19:24:00,52.7,36.1,30.02,NW,323,7.0,18.0,53,0.00,,,0.04,0.0,WUHU216DAVISWMX,2013-05-26 23:24:00,
2013-05-26 19:29:00,52.4,36.3,30.03,NW,307,5.0,18.0,54,0.00,,,0.04,0.0,WUHU216DAVISWMX,2013-05-26 23:29:00,
2013-05-26 19:34:00,52.2,36.1,30.03,WNW,300,6.0,15.0,54,0.00,,,0.04,0.0,WUHU216DAVISWMX,2013-05-26 23:34:00,
2013-05-26 19:39:00,52.1,36.0,30.03,NW,323,5.0,19.0,54,0.00,,,0.04,0.0,WUHU216DAVISWMX,2013-05-26 23:39:00,
2013-05-26 19:44:00,52.0,35.9,30.04,NW,326,9.0,19.0,54,0.00,,,0.04,0.0,WUHU216DAVISWMX,2013-05-26 23:44:00,
2013-05-26 19:49:00,51.8,36.2,30.04,NNW,332,5.0,14.0,55,0.00,,,0.04,0.0,WUHU216DAVISWMX,2013-05-26 23:49:00,
2013-05-26 19:54:00,51.7,36.6,30.04,NW,320,3.0,13.0,56,0.00,,,0.04,0.0,WUHU216DAVISWMX,2013-05-26 23:54:00,
2013-05-26 19:59:00,51.5,36.8,30.04,NW,317,7.0,11.0,57,0.00,,,0.04,0.0,WUHU216DAVISWMX,2013-05-26 23:59:00,
2013-05-26 20:04:00,51.5,36.4,30.04,WNW,299,4.0,17.0,56,0.00,,,0.04,0.0,WUHU216DAVISWMX,2013-05-27 00:04:00,
2013-05-26 20:09:00,51.3,36.6,30.04,NW,318,10.0,19.0,57,0.00,,,0.04,0.0,WUHU216DAVISWMX,2013-05-27 00:09:00,
2013-05-26 20:14:00,51.2,36.6,30.04,NW,325,4.0,19.0,57,0.00,,,0.04,0.0,WUHU216DAVISWMX,2013-05-27 00:14:00,
2013-05-26 20:19:00,51.0,36.4,30.04,NW,320,2.0,19.0,57,0.00,,,0.04,0.0,WUHU216DAVISWMX,2013-05-27 00:19:00,
2013-05-26 20:24:00,50.8,36.2,30.04,NW,311,4.0,16.0,57,0.00,,,0.04,0.0,WUHU216DAVISWMX,2013-05-27 00:24:00,
2013-05-26 20:29:00,50.7,36.1,30.04,NNW,337,8.0,13.0,57,0.00,,,0.04,0.0,WUHU216DAVISWMX,2013-05-27 00:29:00,
2013-05-26 20:34:00,50.6,36.4,30.04,NNW,331,6.0,17.0,58,0.00,,,0.04,0.0,WUHU216DAVISWMX,2013-05-27 00:34:00,
2013-05-26 20:39:00,50.4,36.3,30.05,NW,313,9.0,18.0,58,0.00,,,0.04,0.0,WUHU216DAVISWMX,2013-05-27 00:39:00,
2013-05-26 20:44:00,50.4,36.3,30.04,NNW,337,8.0,18.0,58,0.00,,,0.04,0.0,WUHU216DAVISWMX,2013-05-27 00:44:00,
2013-05-26 20:50:00,50.3,35.7,30.05,NW,306,8.0,19.0,57,0.00,,,0.04,0.0,WUHU216DAVISWMX,2013-05-27 00:50:00,
2013-05-26 20:55:00,50.2,36.1,30.04,NW,315,2.0,19.0,58,0.00,,,0.04,0.0,WUHU216DAVISWMX,2013-05-27 00:55:00,
2013-05-26 21:00:00,50.1,36.0,30.05,NW,314,10.0,19.0,58,0.00,,,0.04,0.0,WUHU216DAVISWMX,2013-05-27 01:00:00,
2013-05-26 21:05:00,49.9,35.8,30.05,NW,320,5.0,13.0,58,0.00,,,0.04,0.0,WUHU216DAVISWMX,2013-05-27 01:05:00,
2013-05-26 21:10:00,49.7,36.0,30.06,NW,306,4.0,10.0,59,0.00,,,0.04,0.0,WUHU216DAVISWMX,2013-05-27 01:10:00,
2013-05-26 21:15:00,49.4,36.2,30.06,NW,318,6.0,9.0,60,0.00,,,0.04,0.0,WUHU216DAVISWMX,2013-05-27 01:15:00,
2013-05-26 21:20:00,49.3,36.1,30.06,WNW,287,4.0,10.0,60,0.00,,,0.04,0.0,WUHU216DAVISWMX,2013-05-27 01:20:00,
2013-05-26 21:25:00,49.3,36.1,30.07,NW,323,5.0,10.0,60,0.00,,,0.04,0.0,WUHU216DAVISWMX,2013-05-27 01:25:00,
2013-05-26 21:30:00,49.2,36.0,30.07,NNW,338,2.0,11.0,60,0.00,,,0.04,0.0,WUHU216DAVISWMX,2013-05-27 01:30:00,
2013-05-26 21:35:00,49.1,36.3,30.07,NW,304,6.0,11.0,61,0.00,,,0.04,0.0,WUHU216DAVISWMX,2013-05-27 01:35:00,
2013-05-26 21:40:00,49.0,36.2,30.07,NW,322,7.0,9.0,61,0.00,,,0.04,0.0,WUHU216DAVISWMX,2013-05-27 01:40:00,
2013-05-26 21:45:00,48.9,36.1,30.07,WNW,298,3.0,8.0,61,0.00,,,0.04,0.0,WUHU216DAVISWMX,2013-05-27 01:45:00,
2013-05-26 21:50:00,48.8,36.5,30.07,West,279,4.0,8.0,62,0.00,,,0.04,0.0,WUHU216DAVISWMX,2013-05-27 01:50:00,
2013-05-26 21:55:00,48.7,36.4,30.08,West,280,0.0,7.0,62,0.00,,,0.04,0.0,WUHU216DAVISWMX,2013-05-27 01:55:00,
2013-05-26 22:00:00,48.5,36.6,30.08,WNW,285,3.0,5.0,63,0.00,,,0.04,0.0,WUHU216DAVISWMX,2013-05-27 02:00:00,
2013-05-26 22:05:00,48.3,36.8,30.08,WNW,291,0.0,7.0,64,0.00,,,0.04,0.0,WUHU216DAVISWMX,2013-05-27 02:05:00,
2013-05-26 22:10:00,48.0,37.3,30.08,WNW,291,1.0,7.0,66,0.00,,,0.04,0.0,WUHU216DAVISWMX,2013-05-27 02:10:00,
2013-05-26 22:15:00,47.7,37.4,30.08,WNW,295,2.0,5.0,67,0.00,,,0.04,0.0,WUHU216DAVISWMX,2013-05-27 02:15:00,
2013-05-26 22:20:00,47.4,37.1,30.08,WNW,295,0.0,5.0,67,0.00,,,0.04,0.0,WUHU216DAVISWMX,2013-05-27 02:20:00,
2013-05-26 22:25:00,47.0,37.1,30.08,WNW,295,0.0,1.0,68,0.00,,,0.04,0.0,WUHU216DAVISWMX,2013-05-27 02:25:00,
2013-05-26 22:30:00,46.6,37.8,30.09,WNW,295,0.0,2.0,71,0.00,,,0.04,0.0,WUHU216DAVISWMX,2013-05-27 02:30:00,
2013-05-26 22:35:00,46.2,37.4,30.09,WNW,295,0.0,2.0,71,0.00,,,0.04,0.0,WUHU216DAVISWMX,2013-05-27 02:35:00,
2013-05-26 22:40:00,45.7,36.9,30.09,WNW,295,0.0,2.0,71,0.00,,,0.04,0.0,WUHU216DAVISWMX,2013-05-27 02:40:00,
2013-05-26 22:45:00,45.3,36.9,30.09,WNW,295,0.0,2.0,72,0.00,,,0.04,0.0,WUHU216DAVISWMX,2013-05-27 02:45:00,
2013-05-26 22:50:00,44.9,37.2,30.09,WNW,295,0.0,0.0,74,0.00,,,0.04,0.0,WUHU216DAVISWMX,2013-05-27 02:50:00,
2013-05-26 22:55:00,44.5,37.1,30.09,WNW,295,0.0,0.0,75,0.00,,,0.04,0.0,WUHU216DAVISWMX,2013-05-27 02:55:00,
2013-05-26 23:00:00,44.2,37.2,30.09,WNW,295,0.0,0.0,76,0.00,,,0.04,0.0,WUHU216DAVISWMX,2013-05-27 03:00:00,
2013-05-26 23:05:00,43.7,37.6,30.09,WNW,295,0.0,0.0,79,0.00,,,0.04,0.0,WUHU216DAVISWMX,2013-05-27 03:05:00,
2013-05-26 23:10:00,43.4,37.7,30.10,WNW,295,0.0,0.0,80,0.00,,,0.04,0.0,WUHU216DAVISWMX,2013-05-27 03:10:00,
2013-05-26 23:15:00,43.0,37.3,30.10,WNW,295,0.0,0.0,80,0.00,,,0.04,0.0,WUHU216DAVISWMX,2013-05-27 03:15:00,
2013-05-26 23:20:00,42.6,37.5,30.10,WNW,295,0.0,0.0,82,0.00,,,0.04,0.0,WUHU216DAVISWMX,2013-05-27 03:20:00,
2013-05-26 23:25:00,42.3,36.9,30.10,WNW,295,0.0,0.0,81,0.00,,,0.04,0.0,WUHU216DAVISWMX,2013-05-27 03:25:00,
2013-05-26 23:30:00,41.9,36.8,30.11,WNW,295,0.0,0.0,82,0.00,,,0.04,0.0,WUHU216DAVISWMX,2013-05-27 03:30:00,
2013-05-26 23:35:00,41.7,36.9,30.11,WNW,295,0.0,0.0,83,0.00,,,0.04,0.0,WUHU216DAVISWMX,2013-05-27 03:35:00,
2013-05-26 23:40:00,41.4,36.9,30.11,WNW,295,0.0,0.0,84,0.00,,,0.04,0.0,WUHU216DAVISWMX,2013-05-27 03:40:00,
2013-05-26 23:45:00,41.2,36.7,30.11,WNW,295,0.0,1.0,84,0.00,,,0.04,0.0,WUHU216DAVISWMX,2013-05-27 03:45:00,
2013-05-26 23:50:00,40.9,36.4,30.11,WNW,295,0.0,1.0,84,0.00,,,0.04,0.0,WUHU216DAVISWMX,2013-05-27 03:50:00,
2013-05-26 23:55:00,40.7,36.8,30.11,WNW,295,0.0,0.0,86,0.00,,,0.04,0.0,WUHU216DAVISWMX,2013-05-27 03:55:00,